| time (UTC) | temp C | wind direction | speed KPH | gust KPH | rain 1hr cm | rain 24hr cm | rain mn cm | humidity % | barometer mb |
| 20260510114557 | 12 | 233 | 4.8 | 14.5 | 0.00 | 0.00 | 0.00 | 77 | 1017.2 |
| 20260510113054 | 12 | 266 | 6.4 | 16.1 | 0.00 | 0.00 | 0.00 | 76 | 1017.3 |
| 20260510111555 | 12 | 193 | 6.4 | 17.7 | 0.00 | 0.00 | 0.00 | 78 | 1017.3 |
| 20260510110054 | 12 | 253 | 4.8 | 14.5 | 0.00 | 0.00 | 0.00 | 78 | 1017.2 |
| 20260510104555 | 12 | 11 | 6.4 | 14.5 | 0.00 | 0.00 | 0.00 | 77 | 1017.3 |
| 20260510103056 | 12 | 274 | 3.2 | 16.1 | 0.00 | 0.00 | 0.00 | 77 | 1017.4 |
| 20260510101606 | 12 | 286 | 4.8 | 16.1 | 0.00 | 0.00 | 0.00 | 75 | 1017.4 |
| 20260510100134 | 12 | 337 | 4.8 | 17.7 | 0.00 | 0.00 | 0.00 | 76 | 1017.4 |
| 20260510094559 | 12 | 322 | 4.8 | 19.3 | 0.00 | 0.00 | 0.00 | 76 | 1017.4 |
| 20260510093102 | 12 | 44 | 4.8 | 12.9 | 0.00 | 0.00 | 0.00 | 77 | 1017.4 |
| 20260510091559 | 12 | 354 | 4.8 | 14.5 | 0.00 | 0.00 | 0.00 | 78 | 1017.5 |
| 20260510090111 | 12 | 336 | 4.8 | 14.5 | 0.00 | 0.00 | 0.00 | 78 | 1017.5 |
| 20260510084600 | 12 | 351 | 4.8 | 12.9 | 0.00 | 0.00 | 0.00 | 79 | 1017.3 |
| 20260510083103 | 12 | 280 | 3.2 | 14.5 | 0.00 | 0.00 | 0.00 | 79 | 1017.6 |
| 20260510081557 | 12 | 240 | 4.8 | 14.5 | 0.00 | 0.00 | 0.00 | 78 | 1017.6 |
| 20260510080100 | 12 | 263 | 3.2 | 14.5 | 0.00 | 0.00 | 0.00 | 79 | 1017.6 |
| 20260510074558 | 12 | 127 | 3.2 | 8.0 | 0.00 | 0.00 | 0.00 | 81 | 1017.7 |
| 20260510073057 | 11 | 259 | 1.6 | 9.7 | 0.00 | 0.00 | 0.00 | 82 | 1018.0 |
| 20260510071603 | 11 | 306 | 3.2 | 11.3 | 0.00 | 0.00 | 0.00 | 82 | 1017.8 |
| 20260510070053 | 11 | 300 | 3.2 | 9.7 | 0.00 | 0.00 | 0.00 | 83 | 1017.9 |
| 20260510064558 | 11 | 353 | 3.2 | 14.5 | 0.00 | 0.00 | 0.00 | 83 | 1017.8 |
| 20260510063056 | 11 | 301 | 3.2 | 11.3 | 0.00 | 0.00 | 0.00 | 84 | 1017.6 |
| 20260510061556 | 11 | 312 | 3.2 | 9.7 | 0.00 | 0.00 | 0.00 | 83 | 1017.7 |
| 20260510060057 | 11 | 211 | 3.2 | 11.3 | 0.00 | 0.00 | 0.00 | 84 | 1017.6 |
| 20260510054555 | 10 | 339 | 4.8 | 11.3 | 0.00 | 0.00 | 0.00 | 85 | 1017.7 |
| 20260510053056 | 10 | 331 | 6.4 | 14.5 | 0.00 | 0.00 | 0.00 | 85 | 1017.8 |
| 20260510051555 | 10 | 341 | 4.8 | 11.3 | 0.00 | 0.00 | 0.00 | 85 | 1017.8 |
| 20260510050058 | 10 | 278 | 4.8 | 11.3 | 0.00 | 0.00 | 0.00 | 86 | 1017.9 |
| 20260510044558 | 10 | 350 | 4.8 | 11.3 | 0.00 | 0.00 | 0.00 | 86 | 1017.7 |
| 20260510043058 | 10 | 248 | 4.8 | 12.9 | 0.00 | 0.00 | 0.00 | 86 | 1017.7 |
| 20260510041601 | 10 | 274 | 4.8 | 14.5 | 0.00 | 0.00 | 0.00 | 87 | 1017.5 |
| 20260510034604 | 10 | 345 | 4.8 | 12.9 | 0.00 | 0.00 | 0.00 | 86 | 1017.4 |
| 20260510033113 | 11 | 259 | 4.8 | 14.5 | 0.00 | 0.00 | 0.00 | 85 | 1017.5 |
| 20260510031600 | 11 | 297 | 4.8 | 12.9 | 0.00 | 0.00 | 0.00 | 84 | 1017.5 |
| 20260510030054 | 11 | 238 | 1.6 | 9.7 | 0.00 | 0.00 | 0.00 | 82 | 1017.5 |
| 20260510024557 | 11 | 264 | 1.6 | 9.7 | 0.00 | 0.00 | 0.00 | 82 | 1017.5 |
| 20260510023057 | 11 | 309 | 1.6 | 6.4 | 0.00 | 0.00 | 0.00 | 83 | 1017.6 |
| 20260510021557 | 11 | 266 | 1.6 | 11.3 | 0.00 | 0.00 | 0.00 | 84 | 1017.5 |
| 20260510020057 | 11 | 318 | 1.6 | 6.4 | 0.00 | 0.00 | 0.00 | 84 | 1017.6 |
| 20260510014554 | 11 | 206 | 1.6 | 4.8 | 0.00 | 0.00 | 0.00 | 85 | 1017.8 |
| 20260510013055 | 11 | 257 | 0.0 | 4.8 | 0.00 | 0.00 | 0.00 | 85 | 1017.9 |
| 20260510011557 | 11 | 224 | 0.0 | 3.2 | 0.00 | 0.00 | 0.00 | 85 | 1018.0 |
| 20260510010056 | 11 | 0 | 0.0 | 3.2 | 0.00 | 0.00 | 0.00 | 85 | 1018.0 |
| 20260510004600 | 11 | 306 | 0.0 | 1.6 | 0.00 | 0.00 | 0.00 | 84 | 1018.0 |
| 20260510003116 | 11 | 210 | 0.0 | 4.8 | 0.00 | 0.00 | 0.00 | 84 | 1018.0 |
| 20260510001559 | 11 | 0 | 0.0 | 1.6 | 0.00 | 0.00 | 0.00 | 84 | 1018.0 |
| 20260509234612 | 11 | 274 | 0.0 | 3.2 | 0.00 | 0.00 | 0.00 | 84 | 1018.4 |
| 20260509233057 | 11 | 0 | 0.0 | 1.6 | 0.00 | 0.00 | 0.00 | 84 | 1018.5 |
| 20260509231557 | 11 | 0 | 0.0 | 6.4 | 0.00 | 0.00 | 0.00 | 84 | 1018.5 |
| 20260509230108 | 11 | 199 | 0.0 | 3.2 | 0.00 | 0.00 | 0.00 | 84 | 1018.5 |
| 20260509224553 | 11 | 0 | 0.0 | 0.0 | 0.00 | 0.00 | 0.00 | 84 | 1018.5 |
| 20260509223058 | 11 | 0 | 0.0 | 3.2 | 0.00 | 0.00 | 0.00 | 84 | 1018.5 |
| 20260509221555 | 11 | 0 | 0.0 | 1.6 | 0.00 | 0.00 | 0.00 | 84 | 1018.5 |
| 20260509220057 | 11 | 0 | 0.0 | 1.6 | 0.00 | 0.00 | 0.00 | 84 | 1018.4 |
| 20260509214558 | 11 | 0 | 0.0 | 0.0 | 0.00 | 0.00 | 0.00 | 84 | 1018.5 |
| 20260509213105 | 11 | 266 | 0.0 | 3.2 | 0.00 | 0.00 | 0.00 | 84 | 1018.6 |
| 20260509211603 | 11 | 0 | 0.0 | 3.2 | 0.00 | 0.00 | 0.00 | 84 | 1018.3 |
| 20260509204600 | 11 | 0 | 0.0 | 8.0 | 0.00 | 0.00 | 0.00 | 84 | 1018.2 |
| 20260509203106 | 11 | 306 | 0.0 | 8.0 | 0.00 | 0.00 | 0.00 | 84 | 1018.2 |
| 20260509201559 | 11 | 1 | 1.6 | 9.7 | 0.00 | 0.00 | 0.00 | 84 | 1018.2 |
| 20260509194559 | 11 | 0 | 0.0 | 6.4 | 0.00 | 0.00 | 0.00 | 83 | 1018.1 |
| 20260509193059 | 11 | 211 | 0.0 | 4.8 | 0.00 | 0.00 | 0.00 | 83 | 1018.0 |
| 20260509191557 | 12 | 356 | 1.6 | 8.0 | 0.00 | 0.00 | 0.00 | 82 | 1017.8 |
| 20260509190058 | 12 | 356 | 0.0 | 6.4 | 0.00 | 0.00 | 0.00 | 81 | 1017.7 |
| 20260509184602 | 12 | 231 | 0.0 | 4.8 | 0.00 | 0.00 | 0.00 | 80 | 1017.9 |
| 20260509183136 | 12 | 0 | 0.0 | 3.2 | 0.00 | 0.00 | 0.00 | 79 | 1017.7 |
| 20260509181612 | 12 | 0 | 0.0 | 3.2 | 0.00 | 0.00 | 0.00 | 78 | 1017.7 |
| 20260509180100 | 12 | 309 | 0.0 | 6.4 | 0.00 | 0.00 | 0.00 | 77 | 1017.5 |
| 20260509174556 | 12 | 122 | 1.6 | 4.8 | 0.00 | 0.00 | 0.00 | 76 | 1017.5 |
| 20260509173103 | 13 | 249 | 1.6 | 6.4 | 0.00 | 0.00 | 0.00 | 75 | 1017.4 |
| 20260509171559 | 13 | 319 | 1.6 | 6.4 | 0.00 | 0.00 | 0.00 | 74 | 1017.4 |
| 20260509170057 | 13 | 244 | 0.0 | 4.8 | 0.00 | 0.00 | 0.00 | 73 | 1017.7 |
| 20260509164602 | 14 | 282 | 0.0 | 4.8 | 0.00 | 0.00 | 0.00 | 72 | 1017.7 |
| 20260509163100 | 15 | 309 | 1.6 | 6.4 | 0.00 | 0.00 | 0.00 | 71 | 1017.7 |
| 20260509161554 | 16 | 356 | 0.0 | 4.8 | 0.00 | 0.00 | 0.00 | 68 | 1018.0 |
| 20260509160058 | 18 | 0 | 0.0 | 1.6 | 0.00 | 0.00 | 0.00 | 64 | 1018.1 |
| 20260509154557 | 18 | 0 | 0.0 | 0.0 | 0.00 | 0.00 | 0.00 | 65 | 1018.1 |
| 20260509153058 | 18 | 0 | 0.0 | 1.6 | 0.00 | 0.00 | 0.00 | 67 | 1018.3 |
| 20260509151556 | 17 | 0 | 0.0 | 1.6 | 0.00 | 0.00 | 0.00 | 68 | 1018.3 |
| 20260509150054 | 17 | 0 | 0.0 | 4.8 | 0.00 | 0.00 | 0.00 | 68 | 1018.2 |
| 20260509144554 | 18 | 216 | 0.0 | 3.2 | 0.00 | 0.00 | 0.00 | 67 | 1018.1 |
| 20260509143058 | 18 | 0 | 0.0 | 3.2 | 0.00 | 0.00 | 0.00 | 69 | 1018.2 |
| 20260509141607 | 17 | 0 | 0.0 | 1.6 | 0.00 | 0.00 | 0.00 | 68 | 1018.1 |
| 20260509140059 | 17 | 0 | 0.0 | 6.4 | 0.00 | 0.00 | 0.00 | 68 | 1018.2 |
| 20260509134600 | 16 | 248 | 0.0 | 4.8 | 0.00 | 0.00 | 0.00 | 73 | 1018.2 |
| 20260509133110 | 16 | 3 | 1.6 | 4.8 | 0.00 | 0.00 | 0.00 | 71 | 1018.5 |
| 20260509131555 | 16 | 30 | 1.6 | 4.8 | 0.00 | 0.00 | 0.00 | 72 | 1018.6 |
| 20260509130055 | 16 | 342 | 0.0 | 9.7 | 0.00 | 0.00 | 0.00 | 72 | 1018.6 |
| 20260509124556 | 16 | 285 | 1.6 | 3.2 | 0.00 | 0.00 | 0.00 | 72 | 1018.7 |
| 20260509123059 | 17 | 0 | 0.0 | 4.8 | 0.00 | 0.00 | 0.00 | 70 | 1018.8 |
| 20260509121555 | 17 | 31 | 1.6 | 4.8 | 0.00 | 0.00 | 0.00 | 68 | 1018.7 |
| 20260509120056 | 18 | 106 | 0.0 | 1.6 | 0.00 | 0.00 | 0.00 | 70 | 1018.9 |